Simultaneous Nadir Overpasses (SNOs) Predictions

Prediction of SNOs near equator between AQUA and NPP Satellite Orbit:

Table of predicted SNOs near equator for the next 14.0 days since TLE Epoch: 5/14/2016
Index Date (AQUA) Time (AQUA) AQUA Lat,Lon Date (NPP) Time (NPP) NPP Lat,Lon Distance(km) Time Diff (sec)
1 05/16/2016 00:09:01 -3.40, 21.16 05/15/2016 23:59:48 -3.36, 21.05 13.29 553
2 05/16/2016 00:57:15 -1.23,-170.23 05/16/2016 00:49:18 -1.30,-170.61 43.03 477
3 05/16/2016 01:45:23 5.72, -1.62 05/16/2016 01:38:41 5.87, -2.26 72.62 402
4 05/18/2016 15:38:00 10.56, -32.13 05/18/2016 15:28:04 10.56, -32.14 0.60 596
5 05/18/2016 16:24:54 -1.59, 137.45 05/18/2016 16:16:11 -1.52, 137.23 24.99 523
6 05/18/2016 17:13:08 -3.04, -53.95 05/18/2016 17:05:41 -3.13, -54.43 54.77 447
7 05/18/2016 18:01:16 7.53, 114.67 05/18/2016 17:55:04 7.70, 113.92 84.01 372
8 05/21/2016 07:52:40 4.29, 85.11 05/21/2016 07:43:12 4.26, 85.06 7.02 568
9 05/21/2016 08:40:48 0.21,-106.27 05/21/2016 08:32:35 0.31,-106.59 36.93 493
10 05/21/2016 09:29:02 -4.84, 62.33 05/21/2016 09:22:05 -4.96, 61.75 66.49 417
11 05/21/2016 10:17:10 9.33,-129.05 05/21/2016 10:11:28 9.53,-129.89 95.31 342
12 05/23/2016 23:26:39 -29.95, 27.49 05/23/2016 23:16:39 -30.11, 27.27 28.23 600
13 05/24/2016 00:08:32 2.38,-158.58 05/23/2016 23:59:35 2.37,-158.75 18.98 537
14 05/24/2016 00:56:40 2.11, 10.03 05/24/2016 00:48:58 2.19, 9.60 48.66 462
15 05/24/2016 01:44:55 -6.68, 178.62 05/24/2016 01:38:28 -6.85, 177.94 78.12 387
16 05/26/2016 15:36:28 -6.20, 148.88 05/26/2016 15:26:46 -6.21, 148.86 2.25 582
17 05/26/2016 16:24:26 0.61, -42.31 05/26/2016 16:15:59 0.55, -42.58 30.82 507
18 05/26/2016 17:12:34 3.88, 126.30 05/26/2016 17:05:22 4.01, 125.77 60.61 432
19 05/26/2016 18:00:48 -8.51, -65.08 05/26/2016 17:54:52 -8.67, -65.88 89.62 356




NCC Satellite Simultaneous Nadir Overpasses (SNOs) Prediction Service
